Location: Unspecified
(0.0000°N, 0.0000°E)
Time: 07:54:25
(UTC+00:00)

deb NOAA 5 - Pass Details

Date: 17 February 2026
Orbit: 747 x 1048 km, 102.9° (Epoch: 14 March)

Event Time Altitude Azimuth Distance (km) Brightness Sun altitude
Rises 19:25:31 0° 340° (NNW) 3,665 ? -17.5°
Reaches altitude 10° 19:29:46 10° 312° (NW) 2,650 ? -18.5°
Maximum altitude 19:31:57 12° 290° (WNW) 2,458 ? -19.1°
Drops below altitude 10° 19:34:06 10° 268° (W) 2,575 ? -19.6°
Sets 19:38:06 0° 238° (WSW) 3,440 ? -20.6°
